Hourly Weather Roundup
Issued by NWS Central Illinois

Home | Current Version | Previous Version | Text Only | Print | Product List | Glossary On
Versions: 1 2 3 4 5 6 7 8 9 10 11 12 13 14 15 16 17 18 19 20 21 22 23 24 25 26 27 28 29 30 31 32 33 34 35 36 37 38 39 40 41 42 43 44 45 46 47 48 49 50
695
NZUS43 KILX 060810
HWRILX

AREA WEATHER ROUNDUP
NATIONAL WEATHER SERVICE, LINCOLN IL
300 AM CDT FRI MAY 06 2016


CITY           SKY/WX    TMP DP  RH WIND       PRES   REMARKS
BLOOMINGTON    CLEAR     48  43  83 W6        30.01F
CHAMPAIGN      CLEAR     44  41  89 W3        30.00S
DANVILLE       CLEAR     44  41  89 CALM      29.97S
DECATUR        CLEAR     46  41  82 CALM      30.01S
EFFINGHAM      CLEAR     46  46 100 CALM      30.02F
FLORA          CLEAR     51  46  81 NW5       30.01S
GALESBURG      CLEAR     43  40  91 CALM      30.00S
JACKSONVILLE   CLEAR     48  39  73 SW5       30.02S
LACON          CLEAR     46  43  90 CALM      29.99F
LAWRENCEVILLE  CLEAR     47  44  90 NW5       30.00S
LITCHFIELD     CLEAR     46  42  87 CALM      30.02S
$$


CITY           SKY/WX    TMP DP  RH WIND       PRES   REMARKS
LINCOLN        CLEAR     45  43  95 CALM      30.01S
MACOMB         CLEAR     47  40  74 W5        30.03S
MATTOON        CLEAR     47  41  80 W6        30.00S
MT CARMEL AP   CLEAR     45  43  93 CALM      30.00S
OLNEY-NOBLE AP CLEAR     45  45 100 CALM      30.01S
PARIS          CLEAR     44  42  95 CALM      30.01S
PEORIA         CLEAR     45  39  79 CALM      30.01F
PONTIAC        CLEAR     46  43  90 SW3       30.00S
RANTOUL        CLEAR     47  44  87 W6        29.99F
ROBINSON       CLEAR     45  42  90 CALM      30.01S
SPRINGFIELD    CLEAR     45  42  89 CALM      30.02S
TAYLORVILLE    CLEAR     45  44  96 CALM      30.02S
$$

...REGIONAL REPORTS...


CITY           SKY/WX    TMP DP  RH WIND       PRES   REMARKS
CHICAGO O`HARE PTCLDY    44  39  82 SW3       29.96F
KANKAKEE       CLEAR     42  40  92 CALM      29.99F
MOLINE         CLEAR     44  40  85 CALM      29.98F
MOUNT STERLING CLEAR     48  39  72 W7        30.02S
MOUNT VERNON   CLEAR     45  39  81 CALM      30.02S
PITTSFIELD     CLEAR     46  43  90 W5        30.04S
QUINCY         CLEAR     47  40  76 S6        30.02S
ROCKFORD       PTCLDY    44  40  85 S3        29.99F
$$


CITY           SKY/WX    TMP DP  RH WIND       PRES   REMARKS
BURLINGTON     CLEAR     48  39  71 CALM      30.00S
CEDAR RAPIDS   CLEAR     49  39  68 SW7       29.96F
DES MOINES     PTCLDY    53  41  63 SW6       29.99F
KIRKSVILLE     CLEAR     50  37  61 SW5       30.04S
OTTUMWA        CLEAR     51  37  58 SW6       30.00S
ST LOUIS       CLEAR     51  43  74 CALM      30.04F
$$


CITY           SKY/WX    TMP DP  RH WIND       PRES   REMARKS
TERRE HAUTE    CLEAR     46  42  86 NW6       29.99S
EVANSVILLE     CLEAR     50  43  77 NW3       30.00R
INDIANAPOLIS   PTCLDY    45  39  79 NW9       29.95F
LAFAYETTE      CLEAR     38  38 100 W5        29.99S FOG     WCI  34
MADISON        CLEAR     46  39  76 CALM      29.94F
MILWAUKEE      CLOUDY    49  38  65 SW3       29.95S
$$






USA.gov is the U.S. government's official web portal to all federal, state and local government web resources and services.